Regional Weather Roundup
Issued by NWS

Home | Current Version | Previous Version | Text Only | Print | Product List | Glossary On
Versions: 1 2 3 4 5 6 7 8 9 10 11 12 13 14 15 16 17 18 19 20 21 22 23 24 25 26 27 28 29 30 31 32 33 34 35 36 37 38 39 40 41 42 43 44 45 46 47 48 49 50
000
ASUS43 KTOP 141559
RWRKS

WEATHER ROUNDUP FOR KANSAS
NATIONAL WEATHER SERVICE GOODLAND KS
1000 AM CST SUN FEB 14 2016

NOTE:  "FAIR" INDICATES FEW OR NO CLOUDS BELOW 12,000 FEET WITH NO
SIGNIFICANT WEATHER AND/OR OBSTRUCTIONS TO VISIBILITY.

KSZ001>006-013>018-027>032-041>047-141700-
NORTHWEST KANSAS

CITY           SKY/WX    TMP DP  RH WIND       PRES   REMARKS
GOODLAND       CLOUDY    37  28  70 W9        29.96F
HAYS           SUNNY     46  27  46 NW12      29.95S
HILL CITY      SUNNY     41  29  62 W9        29.95F
RUSSELL        SUNNY     43  28  55 NW9       29.92F
$$

KSZ061>065-074>080-084>089-141700-
SOUTHWEST KANSAS

CITY           SKY/WX    TMP DP  RH WIND       PRES   REMARKS
DODGE CITY     SUNNY     42  26  53 NW10      29.99F
ELKHART          N/A     42  24  49 NW7         N/A
GARDEN CITY    SUNNY     41  27  57 NW13      29.99F
GREAT BEND     SUNNY     43  27  52 N5        29.96S
LIBERAL        SUNNY     43  30  61 NW13      30.03F
$$

KSZ066>073-081>083-090>101-141700-
SOUTHEAST KANSAS

CITY           SKY/WX    TMP DP  RH WIND       PRES   REMARKS
CHANUTE        SUNNY     42  19  39 S9        29.98F
COFFEYVILLE    CLOUDY    43  22  43 S7        29.99F
HUTCHINSON     SUNNY     33  15  47 SW6       29.97F
MEDICINE LODGE   N/A     35  17  47 W6        30.01S
NEWTON         SUNNY     34  16  47 W3        29.98F
PARSONS        SUNNY     44  22  41 VRB7      29.99F
WICHITA INTL   MOSUNNY   38  15  39 N3        29.98F
WICHITA JABRA  SUNNY     37  17  44 VRB3      29.98S
WINFIELD       CLOUDY    36  18  48 N3        30.00S
$$

KSZ007>012-019>026-033>040-048>060-102>105-141700-
NORTHEAST KANSAS

CITY           SKY/WX    TMP DP  RH WIND       PRES   REMARKS
CONCORDIA      SUNNY     36  23  59 W12       29.91F WCI  28
EMPORIA        SUNNY     39  19  44 SW9       29.96F
LAWRENCE       SUNNY     33  19  56 SW8       29.97F
MANHATTAN      SUNNY     31  13  47 SW9       29.96F
OLATHE IND     SUNNY     32  23  69 S15       29.97F WCI  22
OLATHE EXE     MOSUNNY   31  23  72 S9        29.96F
SALINA         SUNNY     35  19  52 SW3       29.96F
TOPEKA BILLARD SUNNY     34  16  47 SW7       29.96F
TOPEKA FORBES  SUNNY     35  18  49 S13       29.95F WCI  26
$$



USA.gov is the U.S. government's official web portal to all federal, state and local government web resources and services.